Theta_e
349 351 355 356 355 355 354 354 353 353 353 354 353 352 352 352 353 352 352 351 351 351 352 352 352 352 352 351 352 353 353 353 352 352 352 351 350 349 349 349 348 347 347 348 347 348 349 348 348 348 349 347 346 347 347 346 344 343 343 342 343 342 342 340 340 339 338 338 338 338 335 337 342 342 342 342 342 343 343 343 342 339 339 341 343
348 353 355 355 355 355 354 354 354 353 353 354 353 353 353 353 352 352 352 352 352 351 351 352 352 352 352 352 352 352 352 352 352 352 352 351 351 352 352 351 349 348 349 349 350 350 350 351 350 350 350 350 350 349 347 347 345 343 342 343 343 344 344 342 341 339 338 338 338 337 337 338 338 342 342 342 343 343 343 343 342 338 339 342 343
351 354 354 353 355 355 354 354 353 353 353 353 353 353 352 352 352 352 352 352 351 351 351 351 351 351 351 351 351 352 352 352 352 353 352 353 353 353 353 352 352 351 351 349 348 349 350 350 350 350 350 350 350 349 348 347 346 343 343 343 344 344 344 344 343 340 338 339 340 340 338 337 338 340 342 342 343 342 342 342 342 341 339 342 342
350 353 354 354 355 354 354 353 353 353 353 353 353 353 352 352 352 352 351 351 351 351 351 351 351 351 351 352 352 351 351 351 351 352 353 353 353 354 353 352 352 352 349 348 348 348 348 348 349 349 349 350 350 349 348 348 347 343 343 343 344 343 343 343 341 339 337 338 339 337 335 328 334 339 340 340 341 341 341 341 341 341 342 341 342
350 352 353 352 352 353 353 354 353 352 353 353 352 352 352 352 352 351 351 351 351 351 351 351 352 352 351 351 351 351 351 351 351 352 352 353 352 352 351 351 351 351 350 349 347 346 346 347 348 348 349 349 349 348 348 347 347 345 344 343 343 344 343 341 341 341 337 338 338 336 328 329 329 336 338 339 339 339 339 339 340 340 340 340 340
351 352 352 351 351 353 353 353 353 352 353 352 352 352 352 352 351 352 352 352 351 351 351 351 351 351 351 351 351 351 351 352 352 352 352 352 351 350 351 350 350 350 349 348 346 346 346 346 346 348 348 348 347 348 347 347 346 345 345 345 344 343 343 345 341 340 338 337 338 331 328 328 330 332 335 337 338 337 338 339 339 338 338 338 339
351 352 351 350 351 352 353 353 352 353 353 352 351 351 352 352 352 351 352 351 351 351 350 351 351 351 350 351 352 352 352 352 352 352 352 351 351 349 349 349 348 348 348 349 347 345 344 345 346 347 347 347 348 347 346 345 345 345 345 345 345 344 345 345 341 339 339 335 329 329 329 329 331 333 336 336 337 337 337 339 338 338 338 338 338
351 351 350 350 350 352 353 353 353 353 353 352 352 351 352 352 351 350 350 351 351 350 350 350 351 351 351 351 351 352 352 353 352 352 352 351 350 349 348 347 348 347 348 348 348 346 346 346 346 347 347 347 347 346 345 345 344 344 344 343 343 343 344 344 341 339 338 332 331 330 329 329 329 330 335 335 335 335 335 335 334 336 336 339 340
350 351 350 349 349 353 353 353 353 353 353 353 352 352 352 352 351 351 351 350 350 350 350 350 350 350 350 350 351 351 351 351 351 351 351 351 351 351 351 351 347 348 347 347 347 345 345 345 346 346 346 346 346 346 346 345 345 345 345 345 345 345 345 345 341 339 335 332 331 330 328 327 328 329 334 336 335 334 335 336 337 334 339 338 338
349 350 350 349 350 353 352 352 353 353 353 353 353 353 353 351 350 350 350 350 350 349 349 350 350 350 350 350 351 350 350 350 350 350 351 351 351 350 350 349 348 348 347 347 347 346 346 345 344 345 345 346 346 346 346 345 345 345 346 346 345 346 346 344 340 337 330 331 331 329 331 336 327 329 333 336 337 335 334 335 339 335 336 337 337
349 350 349 349 351 352 352 352 353 353 353 353 353 353 352 351 350 350 349 349 351 350 350 350 350 350 350 350 350 350 350 350 349 349 350 350 350 350 348 348 348 348 347 347 347 347 346 344 344 346 347 346 345 345 345 346 345 345 346 346 342 343 342 339 336 332 333 333 330 329 335 337 328 328 335 335 334 334 334 333 332 335 335 335 335
348 349 349 349 353 351 352 352 352 353 353 352 353 352 352 350 350 350 350 350 350 350 350 350 350 350 350 351 351 350 350 350 349 349 349 349 350 349 350 348 348 348 347 347 346 346 346 346 346 346 345 345 345 345 345 346 345 345 346 345 341 341 340 339 334 334 333 333 332 329 328 328 329 332 337 337 336 335 335 335 334 334 335 335 335
348 349 350 350 350 351 351 352 352 353 353 352 352 352 351 351 350 350 351 351 351 350 350 350 350 350 350 350 350 350 349 349 348 348 349 349 349 349 349 349 348 348 348 347 346 346 346 346 346 346 346 346 346 345 345 345 345 345 346 347 341 341 341 341 335 335 335 334 333 331 330 329 330 336 335 336 336 336 337 338 337 337 336 336 335
347 349 349 349 349 352 351 351 352 353 353 352 350 351 351 351 351 351 351 351 350 351 350 350 350 350 350 350 350 350 349 349 349 349 348 348 349 349 349 349 349 348 348 347 346 346 345 345 345 345 345 345 345 344 344 345 345 345 346 346 343 342 342 341 339 335 336 334 334 331 328 330 329 337 336 336 335 335 334 334 334 333 334 334 333
347 348 349 349 350 350 352 351 351 352 352 351 350 350 351 350 351 350 350 350 350 350 350 350 350 349 349 349 350 349 349 349 349 348 348 348 347 348 349 348 348 348 348 347 347 345 345 345 344 344 344 344 344 344 344 345 345 345 345 343 343 342 340 336 336 334 334 335 333 333 328 328 337 334 334 335 334 334 334 334 333 333 333 332 332
348 348 349 348 349 350 350 352 352 351 351 350 350 350 350 350 350 350 350 350 350 349 349 349 349 349 349 349 349 349 349 349 348 348 347 347 347 347 348 347 347 347 346 346 346 345 344 344 344 344 343 343 343 343 343 345 345 345 345 342 341 340 339 337 333 332 332 332 332 332 330 331 336 335 336 336 335 335 334 333 333 333 333 333 332
348 348 348 348 348 348 348 348 350 351 350 350 350 350 350 350 350 350 349 349 349 349 349 349 348 348 348 348 348 349 348 348 348 348 348 348 347 347 347 347 346 346 346 345 345 344 343 343 343 343 342 342 342 342 343 344 345 345 345 343 341 340 340 338 332 331 330 334 334 332 331 331 335 335 335 334 334 334 333 333 333 333 332 332 332
347 348 347 348 347 348 348 347 347 347 347 349 350 350 350 349 349 349 349 349 349 349 348 348 348 348 347 346 346 347 348 348 347 347 347 347 347 347 347 346 346 345 345 344 344 344 343 342 342 343 342 342 342 342 343 344 344 345 345 343 341 340 340 338 330 331 332 336 330 333 331 339 338 336 335 335 334 334 333 333 333 333 332 331 331
346 347 347 347 347 348 347 346 347 347 345 345 347 349 350 349 349 349 349 349 348 348 348 348 348 348 347 346 346 347 347 347 347 347 347 346 346 345 345 345 345 345 344 344 344 343 343 342 342 342 341 341 342 342 342 343 344 344 345 344 342 341 339 335 330 331 333 331 329 328 334 339 338 334 334 334 334 334 333 333 333 333 332 332 332
345 346 346 347 347 346 346 346 346 346 345 345 345 346 349 350 349 349 349 349 349 348 348 348 348 348 347 345 346 346 347 346 347 346 346 346 345 344 345 345 345 344 344 344 343 342 342 342 341 341 341 341 341 342 340 341 343 344 343 343 341 340 330 328 330 329 330 330 330 328 338 339 337 337 336 335 334 333 333 333 333 333 332 332 331
343 344 344 346 346 345 345 345 345 345 345 344 344 345 348 349 349 350 349 349 348 348 348 348 347 347 346 346 344 342 341 342 342 342 345 344 345 344 344 344 344 343 342 341 341 341 341 341 341 341 341 341 341 340 339 341 343 342 343 343 340 329 328 328 329 333 332 331 333 331 340 338 339 339 338 337 335 333 332 333 333 333 333 332 332
339 341 344 345 344 345 344 344 344 345 344 344 344 345 346 347 345 346 346 346 347 348 346 345 347 343 346 342 341 343 339 339 341 345 342 343 343 344 344 343 343 343 342 342 341 341 341 340 340 340 341 340 340 329 330 339 342 341 340 338 330 328 329 330 330 331 332 330 332 337 340 339 338 338 338 338 337 337 335 334 334 333 332 333 333
337 339 342 343 343 343 344 343 344 343 343 343 343 344 343 342 342 343 345 346 346 346 343 343 339 340 340 340 341 339 338 339 340 343 343 343 343 343 343 342 341 341 341 340 339 339 339 339 339 339 339 339 327 325 326 327 331 341 339 331 328 329 329 330 330 330 330 331 329 340 340 340 338 338 338 339 338 336 334 334 334 333 333 333 332
337 339 340 342 342 342 342 343 343 342 341 341 342 343 342 340 339 341 341 341 343 343 340 338 338 338 338 337 337 339 337 338 346 346 346 340 340 343 342 341 341 341 342 340 341 339 339 340 340 338 330 330 323 325 327 327 328 328 328 328 328 329 329 329 329 329 329 336 332 340 339 338 338 338 340 339 338 337 335 335 334 333 332 332 332
337 339 339 339 340 341 342 342 342 341 340 341 341 341 341 339 339 341 340 340 339 337 336 335 336 336 335 336 335 335 334 335 336 336 334 334 332 331 331 331 332 333 336 329 330 331 329 326 325 328 323 326 325 325 328 328 328 328 328 329 329 329 330 330 330 328 328 329 333 342 340 339 338 337 338 339 339 338 337 335 334 334 332 331 332
338 336 337 338 339 341 341 340 340 340 339 340 340 342 340 337 337 338 337 337 336 335 332 334 334 335 335 335 335 333 333 334 334 333 333 331 330 328 327 328 330 332 333 328 327 328 325 325 325 327 325 325 327 328 328 329 328 328 329 329 329 329 329 329 329 330 328 329 335 342 341 341 340 339 341 341 340 338 336 335 334 333 333 332 332
335 335 337 338 339 340 340 340 339 338 337 338 339 339 336 336 337 336 334 333 333 332 331 332 333 333 334 335 332 331 332 332 332 333 334 331 328 327 326 327 328 329 331 329 328 328 327 326 324 325 324 326 328 327 327 327 328 329 329 329 329 329 328 328 328 328 328 330 337 340 341 342 341 341 340 340 338 337 336 335 334 334 333 332 332
334 335 336 337 339 338 338 339 338 338 336 338 337 336 334 335 338 338 333 337 333 331 331 332 333 333 333 333 334 331 331 331 332 333 331 327 326 326 325 326 327 328 331 329 328 329 329 327 323 323 325 326 328 328 328 327 326 328 328 328 329 328 328 328 328 327 329 330 332 339 340 342 341 340 339 337 337 335 334 335 334 333 334 333 333
333 334 336 336 338 338 338 338 337 336 336 337 335 334 335 336 335 332 332 338 330 331 331 331 331 331 332 333 335 330 329 330 330 329 327 326 325 325 325 324 326 328 328 328 329 328 328 328 325 323 322 324 326 327 326 325 325 326 328 329 329 328 328 328 328 328 328 329 330 335 341 342 341 340 338 336 334 333 335 336 336 334 333 333 332
334 335 335 336 337 338 337 337 336 337 337 336 334 334 335 335 333 332 333 335 329 330 330 330 329 330 330 332 332 330 329 329 328 326 327 325 326 326 325 324 326 327 327 328 328 328 329 328 325 324 324 324 326 328 326 326 327 327 328 329 329 329 328 328 328 328 328 329 329 334 340 340 339 340 339 336 334 333 335 336 336 335 333 333 332
333 333 335 336 337 337 336 337 337 338 336 335 334 334 335 334 334 333 333 330 331 332 331 329 329 329 331 331 331 331 330 328 328 326 326 326 324 325 326 325 324 326 327 328 328 329 329 328 326 324 324 325 326 327 327 327 326 328 329 329 328 329 329 329 329 330 330 329 330 331 337 340 340 340 338 337 336 331 334 336 337 335 334 334 334
331 332 334 335 336 337 337 337 334 334 334 334 335 335 335 335 334 333 332 332 332 330 329 329 332 328 330 330 330 330 331 328 328 326 327 326 325 326 325 325 325 326 329 329 330 330 331 330 330 326 325 326 325 325 326 326 326 327 327 328 328 329 328 329 330 329 329 328 329 329 332 335 340 340 340 338 337 336 332 336 338 337 336 336 336
331 332 332 334 335 335 336 335 335 335 335 335 335 335 335 336 334 334 333 334 332 331 329 329 330 329 328 329 329 331 330 329 327 328 330 326 326 325 323 327 328 329 330 332 332 330 328 327 325 326 325 325 325 325 326 325 325 325 326 327 327 328 329 330 329 329 329 328 328 329 330 331 329 337 339 340 339 339 337 334 333 336 337 336 333
328 329 330 333 335 335 336 334 334 335 335 336 335 335 335 335 335 334 336 333 331 330 331 330 331 329 330 328 329 329 329 328 328 326 326 325 324 323 322 326 328 330 331 331 328 327 325 325 324 326 327 324 324 323 324 324 324 323 324 326 326 326 329 329 328 328 328 327 325 327 327 327 327 329 333 340 339 339 339 339 335 334 334 333 332
326 326 330 334 335 334 334 333 335 334 337 336 336 335 335 335 335 335 335 333 332 331 331 330 330 330 331 329 330 330 328 329 327 327 325 325 323 323 323 326 330 331 330 328 327 325 324 323 323 323 323 323 323 325 323 323 323 324 325 325 325 327 327 326 326 326 325 323 326 325 326 326 325 328 330 328 335 338 338 339 338 338 337 335 335
327 327 330 333 334 334 335 333 333 333 335 336 335 335 335 335 335 337 334 333 332 332 331 331 330 329 330 330 328 330 329 328 327 326 325 324 323 322 324 325 330 330 329 327 327 325 323 322 321 323 322 321 323 322 321 323 324 325 325 324 325 325 325 324 326 327 325 324 325 325 325 325 325 328 335 327 328 334 336 336 336 335 336 336 335
327 328 331 332 331 332 335 333 332 333 336 336 335 334 334 334 335 337 334 333 332 331 330 330 331 331 330 329 329 332 330 329 327 326 326 324 323 324 324 325 329 329 327 325 325 324 323 322 321 322 323 321 322 321 321 323 323 323 323 323 323 323 323 324 323 323 325 323 324 325 325 327 331 335 328 326 327 330 335 336 335 335 333 333 333
328 330 332 332 330 331 333 333 333 334 336 336 335 334 334 335 335 334 335 333 333 331 331 331 331 330 330 329 330 331 330 329 328 327 326 326 326 326 324 324 328 329 326 325 324 324 322 322 320 320 322 322 321 322 321 322 323 322 322 322 322 321 321 322 324 328 323 324 324 326 325 324 326 329 329 328 328 328 328 332 334 334 333 333 333
329 331 332 331 331 330 332 333 333 334 333 334 334 333 334 333 331 333 332 332 332 331 331 331 330 330 328 328 329 331 331 329 328 328 328 329 326 325 324 323 327 327 326 325 326 326 324 319 322 321 322 321 321 321 323 323 324 323 323 322 323 321 321 322 322 321 322 324 329 329 326 323 327 327 325 326 329 330 331 331 329 326 326 329 330
330 331 332 331 330 330 331 332 333 332 332 331 332 332 333 333 332 332 333 332 332 332 330 329 330 328 329 330 329 329 331 330 327 328 329 328 326 324 324 323 326 327 326 326 326 325 322 321 320 322 321 322 322 322 323 323 322 321 322 321 322 322 323 321 320 320 321 323 325 325 324 326 327 326 326 325 328 329 329 329 328 323 321 323 325
329 331 331 330 330 330 331 331 332 332 331 330 330 332 332 331 332 333 332 331 331 329 329 327 329 327 329 330 330 329 329 330 329 328 327 330 326 324 323 322 325 327 325 325 325 323 321 321 320 320 321 320 319 320 321 323 321 319 318 317 318 321 326 322 321 321 321 321 323 324 325 325 325 325 326 328 329 328 328 327 324 321 320 318 318
329 330 329 329 330 331 332 332 333 332 332 331 330 332 333 332 332 332 330 329 329 328 326 325 328 329 328 329 330 329 329 330 330 328 328 326 324 324 323 323 324 324 325 326 325 326 322 321 321 319 317 319 318 321 323 318 315 314 314 311 313 315 319 319 320 319 319 320 320 321 320 323 326 327 328 328 328 328 327 324 321 320 319 317 316
329 329 330 329 329 331 332 332 333 332 332 331 331 331 331 331 331 327 327 323 326 326 327 325 329 329 328 329 329 329 329 329 329 329 326 325 325 324 323 322 323 327 326 327 327 323 321 321 319 320 318 319 321 321 321 315 314 313 312 312 308 308 314 315 315 318 319 318 320 321 322 325 326 326 327 328 328 327 325 323 322 319 316 314 313
328 329 329 328 329 330 331 331 332 333 332 332 332 331 331 329 327 327 327 325 322 325 324 325 325 326 326 328 329 329 330 329 329 329 327 325 324 324 323 322 322 326 328 327 326 323 321 319 317 318 320 319 314 318 321 320 316 317 310 307 308 306 306 308 310 312 314 319 320 321 322 324 324 325 327 327 327 326 326 323 317 315 313 312 312
327 328 328 328 329 330 330 330 331 332 332 332 331 329 329 325 324 324 325 324 325 323 323 321 323 325 326 324 327 328 329 329 329 328 328 325 323 324 324 323 322 323 327 326 325 324 322 320 319 320 319 319 314 314 319 321 318 318 314 309 307 305 302 306 306 307 310 311 315 321 325 322 322 324 325 326 327 327 320 314 314 313 311 310 309
326 327 328 328 328 328 328 329 330 330 331 330 329 328 327 323 321 322 321 320 320 321 321 322 321 324 325 322 325 327 328 328 327 327 327 326 324 324 324 324 322 323 325 324 323 322 321 321 320 321 318 318 319 316 315 319 321 321 316 313 311 307 308 308 303 303 309 310 315 318 319 319 319 323 325 326 326 322 317 313 312 310 308 307 306
326 326 326 327 328 328 328 328 328 328 328 328 327 327 324 322 322 323 322 322 321 320 320 321 324 321 323 323 324 323 326 327 325 325 326 326 324 324 324 323 324 324 326 324 323 323 323 322 321 319 318 318 317 315 317 317 318 319 319 318 320 314 315 310 303 304 304 308 309 311 313 317 320 323 325 326 323 318 316 313 309 308 307 306 305
326 325 325 326 326 327 327 326 326 326 326 327 326 326 323 321 321 322 323 322 322 321 321 321 319 322 322 320 319 320 322 324 325 324 325 326 325 324 324 324 324 325 326 324 323 322 323 322 322 320 318 319 318 319 316 314 319 318 318 315 315 315 312 309 308 308 305 306 306 310 310 313 318 320 324 323 320 314 309 308 307 306 305 305 304
325 324 324 325 326 326 325 324 324 325 324 325 325 323 322 321 322 322 321 322 321 321 320 321 320 321 319 316 318 318 319 320 321 323 323 325 327 324 323 323 323 324 327 324 323 323 322 322 320 319 318 318 318 317 319 318 316 316 316 313 313 312 311 310 309 307 304 305 304 305 305 312 317 317 319 317 312 310 309 307 309 307 308 304 303
324 324 323 324 324 324 323 322 322 323 323 323 323 321 321 322 321 321 321 319 320 319 318 318 318 317 318 315 315 316 316 316 316 319 319 321 322 323 322 322 322 323 325 323 322 323 321 321 321 320 319 318 316 319 319 318 318 316 317 315 311 309 309 308 306 307 307 306 306 304 308 312 312 312 313 310 308 307 307 305 303 302 302 301 301
320 322 322 323 323 323 321 320 319 321 322 322 321 319 320 321 321 321 320 319 318 318 317 316 316 317 317 314 314 314 314 315 315 315 317 318 317 321 319 319 321 326 325 322 322 324 322 322 321 318 319 318 317 317 316 316 317 317 316 316 313 312 310 307 307 307 305 304 303 303 304 306 312 312 308 308 307 304 303 302 301 300 301 301 301
Wind_Speed
8 9 9 11 12 12 15 18 18 18 18 17 16 17 17 17 18 19 19 19 19 20 21 21 21 20 20 21 21 20 20 19 19 19 19 19 19 20 19 19 18 18 18 19 20 19 20 20 20 19 18 19 19 18 17 18 17 16 16 18 17 17 17 16 15 16 16 17 17 16 12 13 15 16 15 16 16 16 16 16 13 9 7 11 17
12 9 10 10 13 13 16 19 18 17 17 17 17 17 17 17 18 18 19 20 19 20 20 20 20 20 20 19 20 19 20 20 19 19 19 19 19 20 20 19 20 19 19 19 19 18 19 19 19 18 18 18 18 18 18 16 15 15 16 16 17 17 16 16 15 15 15 16 16 15 14 13 14 16 17 16 16 17 16 16 15 8 7 16 18
11 11 9 11 15 15 16 19 19 18 17 17 17 17 17 17 17 17 18 18 19 18 19 20 19 19 19 18 18 17 18 20 19 19 19 19 19 20 19 19 19 19 18 18 18 18 18 19 19 19 18 17 18 18 18 15 14 15 15 17 17 16 16 15 14 13 13 14 14 13 13 13 14 14 16 16 17 16 16 15 15 14 10 17 16
13 10 9 12 17 15 16 19 19 19 18 17 17 17 17 16 17 16 17 18 19 18 17 18 18 17 18 18 18 17 17 19 18 18 19 19 19 20 19 18 18 19 19 17 16 16 17 18 18 18 18 18 17 18 16 15 14 13 15 15 15 17 17 15 14 13 12 13 13 10 4 4 6 12 14 15 16 16 14 15 14 15 16 15 16
14 11 10 10 11 14 18 19 18 19 18 18 18 19 17 17 17 16 16 17 17 18 18 17 16 16 16 17 18 17 17 17 18 18 18 19 18 20 19 19 18 18 18 18 16 16 16 17 17 17 17 17 17 16 16 14 13 13 13 14 15 16 16 14 13 12 11 12 12 8 5 5 4 10 12 13 14 15 13 15 15 14 14 15 15
12 11 10 9 10 12 18 18 19 20 19 18 18 19 17 16 17 16 16 16 18 17 17 17 16 16 17 16 16 16 16 17 17 17 16 15 15 18 18 18 18 18 18 18 16 15 15 16 16 15 16 16 16 16 15 14 12 11 11 10 11 8 7 10 12 13 11 11 9 5 5 4 3 5 12 12 13 12 12 14 13 13 13 14 14
14 10 10 9 9 12 17 18 20 19 19 18 18 18 17 17 16 16 16 17 17 18 17 17 17 15 16 16 16 14 13 13 14 14 12 13 14 15 17 18 18 18 17 16 15 14 15 15 15 14 14 15 15 15 14 13 12 11 9 8 7 5 7 8 12 12 10 6 4 4 5 4 3 5 12 11 12 11 12 14 13 12 13 13 12
11 9 10 9 9 13 17 18 20 20 19 19 18 18 18 17 17 17 17 17 17 17 17 17 17 16 16 17 16 13 12 12 13 13 12 12 13 13 14 17 17 17 17 16 14 14 14 14 14 14 14 14 15 14 13 12 11 10 8 6 5 5 7 9 12 12 10 4 3 4 5 4 4 3 12 12 12 11 11 10 11 12 12 14 14
11 12 10 10 10 18 17 18 19 20 19 18 17 18 17 17 17 16 16 17 17 17 17 17 17 17 16 16 15 15 14 15 15 15 14 13 12 12 11 12 15 17 16 14 12 12 13 13 13 13 13 14 14 13 13 12 11 9 7 7 5 4 7 9 12 11 6 3 3 3 3 3 4 4 11 13 14 12 12 10 8 10 14 13 13
12 10 10 8 10 17 17 18 18 19 18 18 18 17 17 17 17 16 17 17 17 16 17 16 16 17 16 16 15 15 15 15 16 15 14 14 14 15 15 15 16 16 15 13 12 12 12 12 12 13 14 14 13 12 12 11 10 10 9 9 9 11 13 14 14 8 4 3 3 3 2 4 2 5 9 13 14 13 12 12 8 10 9 12 13
12 11 9 9 12 17 17 17 18 19 18 17 18 17 17 16 17 17 17 17 17 16 16 16 16 16 16 15 14 14 15 15 15 15 14 13 13 14 15 16 14 14 14 12 10 11 12 12 12 13 13 12 12 11 11 11 10 10 10 11 13 16 16 16 10 5 4 3 3 2 5 8 6 4 12 12 13 13 12 11 11 11 11 11 11
12 10 9 8 15 16 16 17 17 17 18 17 17 18 17 16 15 16 17 16 17 16 15 14 13 15 16 14 14 14 14 14 14 14 14 13 13 14 14 15 15 15 14 11 9 10 12 12 11 11 11 11 11 12 12 11 11 10 11 12 14 14 15 13 7 5 4 3 4 3 4 3 3 7 13 14 13 12 12 13 13 13 13 13 12
11 10 9 9 10 15 15 16 17 17 17 17 17 18 17 16 16 15 15 13 14 14 15 14 13 13 14 14 14 13 13 14 13 13 13 13 14 14 14 16 15 15 15 13 9 10 11 11 11 10 10 11 11 12 12 11 11 11 10 10 15 15 14 13 6 5 4 3 3 4 4 5 4 11 12 12 12 13 13 12 12 12 13 13 12
11 10 9 9 8 15 15 15 16 16 16 16 17 16 15 14 14 14 13 13 13 13 13 13 12 13 13 13 13 13 13 13 13 14 14 14 15 14 15 16 15 14 14 13 9 9 10 10 10 10 10 10 10 11 12 12 11 10 10 8 15 14 14 9 8 5 4 4 3 3 3 2 3 12 12 12 12 11 11 10 10 11 11 11 12
12 11 10 9 9 10 16 15 15 15 15 14 15 15 14 12 12 13 12 14 14 13 13 13 13 12 13 14 13 13 14 14 14 15 15 15 15 15 15 15 14 13 13 13 10 8 9 9 9 9 9 10 10 11 12 12 11 10 9 12 15 15 13 6 5 4 4 4 3 3 3 3 9 10 11 11 11 11 11 11 11 11 11 10 11
12 12 11 9 9 9 10 15 17 15 14 15 15 15 13 13 13 13 12 12 12 11 12 11 11 11 11 12 12 13 14 14 14 14 14 14 14 15 15 15 14 13 13 13 11 7 7 8 8 8 9 9 10 11 11 12 12 10 9 11 14 14 13 7 5 3 3 3 3 3 4 4 9 9 11 11 10 10 10 11 11 11 12 12 12
11 11 11 10 9 8 8 9 13 19 16 15 15 14 13 13 13 13 12 13 13 13 12 12 12 12 12 12 12 12 13 13 14 14 14 13 14 14 15 15 14 13 13 12 11 8 5 6 7 8 8 8 10 10 11 12 11 10 9 10 12 13 13 9 5 4 4 3 2 3 4 4 9 9 10 10 10 11 10 10 10 10 10 10 11
11 10 11 10 10 8 8 8 10 10 10 13 14 14 13 13 13 13 13 13 13 14 12 11 11 12 12 14 13 13 13 13 13 14 14 13 13 14 14 14 15 13 12 12 11 9 5 4 6 7 7 8 9 10 10 11 10 9 8 10 12 13 13 9 5 4 3 4 3 2 3 7 10 10 10 10 10 9 9 10 10 9 9 9 10
11 10 10 11 10 10 9 8 9 8 9 7 7 11 13 14 13 13 13 13 14 14 14 12 13 12 14 14 14 14 13 13 13 13 12 13 13 13 13 13 14 12 12 11 10 9 7 4 4 6 7 7 9 10 10 9 8 7 8 9 12 12 13 7 4 3 3 4 2 3 5 10 9 10 10 10 10 9 8 8 8 9 9 9 10
9 10 10 9 9 10 8 8 8 9 7 6 7 8 12 15 14 13 14 15 15 15 14 13 13 13 14 14 14 11 12 10 14 10 13 12 11 9 12 12 13 12 12 11 10 8 7 4 3 5 6 7 8 9 8 7 6 7 8 12 14 12 7 5 5 5 5 3 3 3 7 10 11 12 11 9 9 9 9 9 9 9 9 9 10
7 9 9 9 10 9 10 8 8 9 8 7 6 7 10 13 11 13 15 15 15 15 14 15 13 12 12 11 10 6 5 5 6 5 11 6 8 10 11 12 12 12 11 11 9 8 7 5 3 5 7 7 7 6 6 6 7 8 11 13 13 6 5 5 6 5 4 3 3 3 8 10 11 12 12 11 10 8 8 7 8 8 8 9 9
9 8 8 9 9 8 9 9 8 9 8 7 6 5 7 9 6 7 7 10 12 12 9 7 9 6 11 8 5 5 5 4 5 8 5 6 6 10 10 11 11 11 11 10 9 7 6 5 4 5 6 5 5 3 3 5 8 9 13 13 8 5 5 5 5 5 4 4 3 4 8 10 11 11 12 11 9 8 8 8 8 8 9 9 8
10 9 8 9 7 8 8 9 10 9 9 7 6 6 6 4 5 6 6 9 8 7 5 7 4 5 5 5 5 5 4 4 4 6 5 8 6 8 9 10 10 11 11 10 9 7 6 5 5 5 4 3 3 3 3 4 5 10 11 8 6 5 5 5 5 5 4 3 3 7 8 8 10 10 11 11 10 8 7 8 8 8 9 8 9
8 7 9 7 7 7 9 10 10 9 7 7 6 6 5 4 5 5 5 5 5 5 5 5 5 4 5 5 5 4 3 4 8 11 8 4 5 7 8 9 9 10 9 6 7 7 8 7 6 4 2 2 4 3 4 5 5 5 6 6 5 5 5 4 5 4 3 3 3 9 8 8 8 11 11 11 10 9 8 8 8 8 8 8 8
8 8 8 8 8 9 9 10 9 8 7 7 7 6 5 5 5 5 5 5 5 5 4 4 5 5 5 5 4 3 4 4 4 4 4 4 3 2 2 2 3 4 6 5 4 4 5 4 3 3 3 3 4 3 4 5 5 6 6 5 5 5 5 5 4 3 2 2 2 6 7 7 8 9 10 10 10 10 9 8 8 8 7 8 8
7 7 8 9 9 9 10 8 8 7 6 6 6 7 7 5 5 5 6 5 5 5 4 4 5 5 4 4 4 5 4 4 4 4 4 4 3 2 2 2 3 3 4 5 4 4 3 2 2 3 4 4 4 3 3 6 7 6 6 5 5 5 5 5 4 4 2 2 2 6 6 5 6 9 10 10 10 10 9 8 8 7 6 7 8
8 6 6 7 9 9 8 7 6 6 6 5 5 5 5 5 5 6 6 5 4 5 4 4 4 4 4 4 6 5 5 4 4 4 4 3 2 2 2 2 3 4 3 5 4 2 1 1 2 3 3 4 4 4 5 5 6 7 5 5 5 5 5 4 4 3 3 3 4 7 5 6 8 10 9 9 9 9 9 8 8 7 6 6 7
8 8 7 8 8 8 7 6 7 6 6 6 5 5 5 6 6 6 5 7 6 5 4 4 4 4 3 3 4 5 5 5 4 4 3 2 2 1 2 3 3 4 3 4 4 2 2 1 2 3 4 4 5 5 5 5 4 5 6 5 5 5 4 4 3 3 3 3 3 5 6 8 8 9 9 9 9 9 9 8 7 7 6 6 6
12 12 8 7 8 8 8 7 7 6 6 6 5 5 5 5 5 6 5 6 5 5 4 3 4 3 3 4 5 5 4 4 5 4 3 2 1 1 2 3 3 3 3 2 2 2 2 2 2 2 4 6 5 5 5 5 4 4 6 6 5 5 4 4 3 3 3 3 3 4 7 10 8 6 8 8 8 8 8 8 8 7 7 6 6
12 11 11 9 8 8 9 9 7 6 5 5 5 5 5 6 6 6 5 5 4 3 3 4 3 4 4 3 4 5 5 5 5 4 4 3 2 1 2 2 3 3 2 2 1 2 2 2 2 3 5 6 6 4 5 5 4 4 4 6 5 5 4 4 4 4 3 3 3 3 7 8 7 6 5 6 7 7 8 7 7 7 7 6 6
10 10 8 8 9 10 8 6 4 4 3 2 5 5 5 5 5 5 4 5 4 4 3 3 3 3 4 3 3 4 5 4 5 4 4 4 2 2 2 1 3 2 2 2 2 3 2 3 2 3 4 5 5 4 5 5 4 4 4 5 5 5 5 4 3 3 4 4 4 4 5 7 5 3 5 6 5 5 6 6 8 8 7 7 6
9 9 6 7 8 7 7 8 9 5 3 2 1 5 5 5 5 5 5 4 4 4 4 3 3 3 3 3 3 3 4 4 5 4 4 4 3 3 1 1 2 2 2 2 3 2 3 3 4 4 5 6 5 5 4 5 4 4 3 5 4 5 3 4 4 4 3 4 4 4 4 4 6 7 7 6 5 4 7 8 7 6 6 6 5
3 3 6 6 7 6 7 8 10 10 8 6 3 4 4 5 5 5 5 5 4 4 4 4 4 3 3 3 3 3 3 5 4 4 4 3 3 3 2 1 1 3 2 3 4 3 2 4 5 5 6 5 6 5 4 3 4 3 4 4 4 3 4 5 4 3 4 3 4 4 4 3 3 6 7 8 5 3 4 5 6 6 6 5 3
8 8 4 6 6 5 6 7 8 7 6 5 4 5 4 5 4 4 5 5 4 4 4 4 4 4 3 3 3 3 3 3 4 3 3 3 2 2 2 2 2 3 2 3 4 2 3 5 5 6 5 6 5 3 4 4 3 3 4 4 3 3 5 4 3 3 3 3 3 3 4 3 3 3 3 7 7 7 8 4 4 4 5 3 2
6 3 4 5 8 7 8 7 8 8 7 6 6 6 5 5 5 5 5 4 4 4 4 4 4 4 3 3 3 3 3 3 3 4 3 3 3 2 1 1 3 3 2 2 4 3 3 5 5 7 5 5 4 3 3 4 3 3 4 3 3 4 4 4 3 3 3 3 3 3 3 3 2 3 3 4 6 7 8 10 10 11 8 4 5
20 17 11 9 9 10 9 9 10 10 7 7 6 6 6 5 5 5 5 4 4 4 4 3 4 3 4 4 3 3 3 3 4 4 4 3 3 3 1 2 4 4 2 3 4 4 4 4 3 6 7 4 5 3 3 4 4 4 3 4 5 3 4 3 4 4 2 3 3 3 3 2 1 2 4 4 4 6 10 10 12 10 11 9 9
22 23 20 15 10 9 10 10 12 10 9 8 7 5 6 6 5 5 5 5 5 4 3 3 3 4 4 4 3 4 4 4 4 5 5 4 4 3 2 2 4 4 3 3 5 4 4 4 3 3 7 5 4 4 4 4 4 4 4 4 4 3 4 4 3 2 2 3 2 2 2 3 3 5 3 4 4 4 7 8 10 9 10 6 6
5 14 20 18 15 12 10 8 8 9 8 8 8 7 6 6 5 5 5 5 4 3 4 4 4 4 4 4 4 4 5 5 5 5 5 4 3 4 3 3 3 4 3 4 5 4 3 4 5 4 5 6 4 5 5 4 4 4 5 5 4 5 4 3 1 2 3 2 3 3 1 1 3 4 4 4 5 5 5 8 13 14 13 11 13
9 10 14 17 15 12 9 9 9 8 6 6 5 6 6 4 3 4 4 4 3 3 4 4 4 4 3 3 3 3 4 4 4 3 4 4 3 3 3 3 4 4 4 5 4 4 3 2 5 5 5 4 5 4 5 4 5 5 5 5 4 4 3 2 2 2 2 2 2 2 1 2 4 4 4 4 5 5 7 5 5 5 7 13 13
11 12 10 12 12 10 9 9 9 7 7 6 5 6 5 6 5 4 4 4 4 4 4 5 4 4 3 3 3 3 3 4 3 5 6 4 4 3 4 3 4 5 5 5 4 4 5 4 4 7 6 5 4 4 4 6 5 6 4 4 4 3 3 3 3 2 2 2 3 1 1 3 3 4 3 2 4 5 6 5 5 5 5 9 13
6 6 9 11 13 12 11 11 9 9 8 8 7 7 7 6 5 6 5 4 5 3 4 3 4 4 3 4 4 4 4 4 4 4 5 4 4 3 3 3 5 5 5 5 5 4 3 4 4 3 7 6 3 3 3 5 7 5 5 4 5 4 3 3 3 3 3 2 3 2 3 3 4 4 3 3 7 5 4 5 5 5 5 5 6
8 7 9 10 11 13 13 11 10 9 9 9 8 7 7 7 6 6 4 4 4 4 4 2 4 4 4 4 5 4 5 4 4 4 4 5 5 4 3 4 5 5 4 5 5 4 4 4 4 4 3 4 4 4 5 3 3 3 5 2 3 3 2 4 3 2 1 2 3 3 3 4 4 4 5 5 5 5 6 5 5 5 5 5 5
9 10 10 10 10 11 11 11 10 10 8 7 7 7 5 5 6 4 5 3 0 2 2 2 3 5 4 4 5 5 6 5 5 5 5 4 5 5 4 4 4 5 6 6 6 6 5 5 4 6 4 3 2 1 1 1 4 2 2 5 1 3 3 4 3 4 2 2 3 4 3 4 5 4 4 6 5 6 6 6 5 5 5 5 4
8 9 10 12 10 9 10 10 10 9 8 7 7 5 6 5 4 6 5 4 4 2 2 2 3 4 3 4 4 6 6 6 5 5 4 4 4 5 4 4 4 5 7 7 6 6 5 4 3 3 6 5 2 2 1 1 3 7 3 2 2 3 4 2 3 3 3 3 4 4 3 4 5 5 4 7 6 5 5 6 5 5 5 4 4
9 9 11 11 9 11 10 11 10 9 9 9 9 7 6 5 5 5 5 6 5 4 4 1 1 2 3 3 5 5 5 5 5 4 5 4 3 4 4 4 4 4 5 6 6 6 6 5 4 4 4 7 3 1 1 2 2 1 5 4 3 1 1 2 2 3 5 4 4 4 5 3 4 4 5 6 5 5 5 5 4 4 4 4 3
10 8 8 9 10 10 10 9 8 8 8 8 8 8 7 7 7 8 7 5 5 5 5 6 4 4 5 2 3 3 4 5 5 5 4 4 4 3 3 4 4 4 5 5 5 5 5 6 5 5 3 0 5 4 2 1 1 3 2 1 4 4 6 3 4 1 3 4 5 6 5 4 3 4 4 5 6 5 4 4 3 4 3 4 3
9 6 6 7 9 10 10 10 8 7 6 7 7 7 7 6 7 7 6 7 7 4 3 4 6 3 3 4 4 3 3 5 4 4 4 4 4 4 4 4 4 4 4 5 5 6 5 5 5 4 4 4 3 4 5 3 1 1 2 1 0 0 6 6 3 4 4 4 5 5 5 5 4 4 5 5 5 4 3 3 4 4 4 3 3
6 5 6 7 10 11 10 9 7 7 6 7 7 6 8 7 7 6 7 7 7 6 6 5 3 3 4 3 3 2 2 3 4 3 4 5 5 5 4 4 4 4 4 5 5 4 4 3 4 4 4 5 5 6 5 3 6 2 2 3 3 4 4 4 4 6 6 6 3 4 5 5 5 5 4 5 4 3 3 3 3 4 3 3 3
6 7 7 7 8 8 8 7 7 7 6 7 7 6 6 7 8 8 7 6 5 5 4 3 4 4 4 2 2 2 2 2 3 4 4 4 5 5 5 4 4 4 3 4 4 5 5 5 4 4 5 4 4 4 5 6 4 4 3 3 4 4 5 3 3 3 4 7 3 4 3 3 6 5 5 4 4 3 2 2 2 2 2 3 3
5 5 4 5 6 7 7 8 7 6 6 7 7 6 6 7 7 8 9 6 5 5 5 5 5 4 5 3 3 3 2 2 2 2 3 3 3 4 4 4 4 4 3 4 4 4 4 4 4 5 4 4 3 5 7 6 5 4 4 5 4 3 4 3 2 5 6 4 7 7 5 7 5 2 4 4 3 3 3 2 3 2 2 2 2
4 5 6 7 7 7 7 7 5 5 6 6 6 6 5 6 7 8 9 8 7 8 7 5 5 4 5 3 3 3 2 3 3 2 2 2 3 2 3 3 4 4 4 4 4 5 5 5 3 3 4 4 4 4 3 3 4 5 4 6 7 8 7 5 6 3 4 4 6 5 4 2 5 6 2 2 2 2 2 2 1 1 1 1 1
Wind_Direction
167 149 145 143 138 134 125 120 119 119 117 114 111 110 108 106 104 105 106 106 108 110 111 112 111 110 112 114 114 115 115 115 116 117 117 114 111 109 107 104 100 101 102 102 102 104 104 102 100 100 98 96 95 93 91 90 93 97 92 86 83 84 86 83 80 82 83 80 78 83 91 97 84 81 76 81 80 76 71 66 63 60 69 72 73
158 152 144 145 139 134 127 124 123 123 122 118 116 113 111 109 108 108 108 108 109 112 113 112 112 114 115 114 115 114 116 117 118 119 119 116 113 113 110 106 104 103 101 102 103 104 105 104 102 100 100 99 100 101 94 91 96 97 91 90 88 89 87 84 80 77 76 82 85 82 83 84 87 81 79 78 79 79 74 72 71 66 61 65 68
143 146 143 145 142 136 130 128 128 127 125 123 120 117 115 114 113 111 110 110 110 111 113 115 114 114 115 115 115 116 117 120 121 123 122 120 117 112 107 108 106 105 105 104 106 105 105 104 103 104 101 99 97 89 90 94 96 97 98 94 93 89 85 81 77 75 74 67 64 66 75 84 91 88 89 86 81 77 77 74 73 75 77 74 75
139 143 142 145 141 136 134 131 130 131 129 126 123 121 119 118 116 113 113 113 113 113 113 114 114 114 118 119 118 117 118 117 116 117 118 118 116 110 109 109 111 109 104 101 99 100 105 105 106 104 103 100 92 91 96 95 93 101 100 100 102 98 91 87 84 80 77 71 62 58 35 10 61 88 84 81 77 75 76 78 74 77 73 67 65
140 142 143 144 139 139 136 133 132 133 131 129 128 126 124 121 117 117 117 115 114 113 114 116 117 118 118 118 120 120 119 119 117 117 116 114 112 110 110 108 104 104 107 105 101 100 109 110 108 105 101 97 94 93 92 95 95 94 101 103 106 100 84 90 92 89 84 72 58 52 52 44 48 84 90 86 82 74 73 76 73 69 66 66 69
140 142 142 140 140 140 137 134 134 135 134 132 130 128 127 124 122 121 119 117 116 115 116 117 118 119 121 120 119 117 115 117 117 116 118 117 112 112 112 112 109 107 107 107 106 105 106 107 109 101 100 99 96 93 91 93 96 97 94 103 120 115 67 66 91 95 90 72 50 46 44 38 40 75 90 91 80 86 89 79 78 74 72 68 67
139 138 139 139 138 142 139 136 135 135 136 135 133 131 129 126 125 124 122 121 120 119 118 119 120 120 121 120 118 113 109 111 116 116 113 110 111 112 116 117 114 112 110 109 109 111 112 110 109 105 102 98 91 87 90 93 93 92 94 101 108 107 89 84 94 97 80 55 38 39 50 49 39 86 95 88 86 90 91 82 77 74 74 75 73
135 137 138 139 139 144 140 137 137 137 136 137 135 134 130 128 126 128 127 124 122 121 121 121 121 120 120 120 119 115 110 105 109 111 110 111 110 112 116 117 118 115 111 109 108 108 114 115 113 109 103 97 94 93 93 93 92 89 82 70 63 73 97 100 99 95 82 63 52 58 60 52 33 68 90 95 99 97 92 94 101 84 79 75 70
138 139 138 139 144 145 140 137 138 138 139 139 139 136 132 130 130 128 126 125 122 123 124 124 124 123 123 122 120 117 109 106 103 100 101 103 105 106 100 98 106 109 109 110 107 102 104 110 111 106 100 93 88 88 88 88 86 80 71 65 66 117 131 126 108 92 78 71 68 73 72 63 57 69 87 91 95 96 76 52 56 84 84 82 79
139 137 141 143 145 144 140 139 139 140 141 141 139 136 132 131 130 129 126 124 122 124 126 126 127 127 127 125 122 116 109 106 103 101 100 102 105 106 105 103 105 109 111 112 111 105 99 92 91 91 87 85 84 82 80 78 75 69 59 59 81 117 125 119 107 94 84 81 82 81 79 57 39 104 100 91 98 102 97 93 101 92 92 92 86
139 140 143 143 147 144 142 140 140 142 142 141 141 135 131 130 131 129 127 126 124 124 125 127 128 130 129 124 119 116 112 109 108 107 106 105 103 104 107 109 109 109 112 114 109 103 97 93 90 89 88 87 84 81 77 73 69 64 64 69 91 103 106 107 99 94 93 92 85 86 93 76 68 65 102 98 90 92 103 104 94 88 89 88 90
138 140 143 145 146 141 141 140 140 141 142 143 140 134 131 132 132 130 127 126 125 126 126 128 130 130 129 124 119 117 114 112 110 110 108 104 101 98 104 111 112 114 114 113 106 100 98 97 95 94 91 87 82 77 74 71 66 62 67 79 95 95 99 101 99 100 101 98 93 76 52 56 71 95 92 93 103 103 93 94 96 92 87 86 87
138 139 139 142 137 140 138 138 140 142 143 144 140 133 134 136 135 131 127 124 125 126 128 126 127 128 127 124 121 118 118 116 115 112 108 103 100 99 104 112 112 114 117 115 110 103 102 98 94 88 85 80 76 73 71 68 64 62 66 80 109 109 111 109 100 103 102 98 96 84 87 87 93 104 102 101 100 101 99 93 91 90 87 86 86
139 136 137 133 135 139 136 137 139 142 143 141 136 134 135 138 135 129 125 125 127 127 126 126 127 127 126 124 122 120 120 120 119 117 113 109 107 106 108 113 114 116 118 117 116 106 100 95 88 79 74 71 66 65 67 66 62 58 68 82 116 115 112 105 112 108 113 110 104 102 92 93 119 113 109 109 110 107 103 101 97 96 95 91 86
136 135 132 131 133 135 138 138 140 140 139 134 131 133 134 134 129 124 123 127 128 125 126 127 127 128 127 123 120 120 121 122 121 120 118 117 115 113 113 113 115 119 123 121 114 103 95 91 84 77 71 65 62 60 60 62 60 59 63 112 122 120 119 116 113 112 115 118 111 104 94 78 95 106 114 113 103 99 94 93 95 94 97 98 96
131 129 127 128 129 135 139 142 140 136 133 132 132 133 135 134 127 123 125 125 121 120 121 123 127 126 126 123 123 123 121 118 117 116 117 119 121 121 117 118 120 121 120 117 110 101 90 87 83 78 69 64 60 57 57 60 60 59 70 117 124 125 125 117 114 108 107 111 112 105 99 102 110 112 109 105 105 103 100 100 98 97 96 96 93
123 125 125 126 126 125 133 137 141 136 133 132 133 136 137 133 126 125 128 127 126 123 122 122 125 125 130 129 126 121 118 116 117 117 117 118 120 120 122 123 123 122 118 114 111 105 90 86 85 74 67 61 62 58 56 60 62 62 72 117 128 127 126 118 111 110 111 121 117 112 116 116 112 108 107 108 105 100 104 99 94 92 91 91 90
123 125 125 124 122 122 131 131 131 131 135 135 136 140 137 131 128 130 132 130 130 126 125 120 122 123 127 128 126 119 113 114 115 117 117 117 116 114 119 121 120 120 118 115 113 111 102 84 78 73 64 55 57 56 53 57 62 66 73 115 130 127 125 112 111 114 117 111 98 102 98 110 114 118 116 108 102 101 96 92 88 85 89 92 96
123 124 121 123 124 127 126 126 130 129 133 138 140 141 134 131 132 134 134 129 128 127 125 120 120 119 122 128 124 120 116 116 116 116 116 117 117 116 120 120 117 121 120 117 116 116 115 101 80 73 65 57 55 55 52 55 59 65 82 123 129 124 119 110 112 106 92 96 99 105 119 122 121 110 98 101 106 104 102 103 97 92 88 86 89
123 123 123 123 127 126 127 128 128 131 136 143 140 137 136 136 138 138 134 130 129 129 125 123 122 122 124 126 120 116 116 117 119 117 115 112 110 118 124 119 120 126 123 118 116 121 124 117 94 78 70 60 58 58 55 60 64 62 92 125 131 118 108 112 106 102 109 116 113 128 138 133 126 120 112 106 104 104 98 93 90 86 81 82 85
125 126 127 130 128 127 131 127 130 133 140 140 135 134 142 139 141 138 131 129 130 128 127 125 123 122 121 114 104 103 103 107 108 107 112 106 115 126 122 122 126 124 116 115 119 121 125 121 100 79 68 66 63 62 52 61 68 72 106 129 117 105 118 112 112 116 120 121 122 141 137 130 125 120 116 117 114 104 98 97 94 94 98 91 88
137 134 132 131 130 129 125 131 135 142 147 141 134 134 139 140 134 127 127 129 130 126 123 123 121 115 118 115 109 110 104 110 114 119 108 117 128 125 123 126 124 118 115 114 115 115 111 109 88 74 79 71 72 58 37 50 72 91 110 106 108 120 116 115 117 123 124 134 144 162 141 134 127 122 122 119 114 119 116 107 97 96 93 96 93
142 143 137 133 131 129 134 139 146 152 149 140 133 129 130 138 117 116 127 131 126 114 111 114 105 111 109 110 108 112 122 114 116 119 111 126 123 124 123 122 118 114 113 111 109 104 98 89 83 82 86 105 90 82 77 67 62 97 110 105 111 110 107 108 115 124 136 147 157 147 140 133 131 128 128 125 120 114 109 107 107 101 94 90 86
140 138 137 129 133 139 144 149 152 154 146 136 128 129 143 128 114 111 105 100 98 101 108 115 111 113 114 109 115 121 113 127 133 125 117 101 113 124 125 120 113 105 94 83 81 79 65 71 91 86 55 62 77 86 84 81 84 91 92 96 96 102 107 115 118 121 134 142 155 149 143 135 131 128 129 125 118 117 114 110 108 106 104 100 97
135 130 130 136 141 151 153 155 156 154 141 135 134 137 144 119 104 104 104 102 101 103 110 114 121 123 120 117 117 114 104 82 76 85 88 89 69 59 55 75 79 74 81 73 65 63 64 61 46 44 47 59 79 87 98 81 73 77 81 89 96 101 103 101 101 99 97 106 153 146 135 136 139 134 129 125 126 119 111 109 109 108 105 108 102
128 130 137 144 157 159 156 151 150 145 137 131 139 150 145 118 108 113 109 101 109 114 120 124 129 134 129 124 113 108 98 95 97 98 89 92 92 87 89 83 76 77 75 79 72 74 65 57 63 60 46 69 95 108 94 98 93 86 93 100 108 108 110 100 92 94 101 109 130 129 136 148 124 126 124 120 114 112 109 109 109 107 106 98 99
142 139 141 154 158 153 147 142 139 137 127 124 141 142 125 112 108 118 120 117 119 127 134 139 142 138 134 135 126 118 111 112 111 104 109 104 122 127 108 89 99 90 77 86 76 64 76 65 57 59 65 87 85 80 73 75 100 106 106 111 107 100 90 92 101 111 113 113 111 97 89 113 111 121 125 125 115 110 110 108 109 104 98 100 100
135 149 156 157 153 141 138 141 142 147 135 141 146 134 112 118 123 121 121 142 137 140 151 155 142 130 126 123 116 119 126 124 121 122 124 114 146 131 121 99 93 89 71 84 97 60 57 40 46 44 73 82 87 74 73 74 76 104 111 105 97 92 95 101 105 103 102 98 98 85 77 107 114 134 135 121 119 116 105 108 113 111 107 99 95
146 160 158 152 142 138 142 150 153 154 145 148 143 122 115 119 113 125 138 151 144 153 156 143 128 113 114 121 123 118 112 124 131 130 117 141 151 138 111 93 85 85 85 56 103 116 52 44 42 57 73 82 76 74 78 70 72 72 104 107 111 114 115 105 92 81 78 90 96 97 98 121 131 137 124 125 121 118 117 120 119 123 120 109 103
159 159 156 146 134 136 154 165 160 155 144 135 130 123 129 125 129 140 151 145 154 148 140 139 125 125 130 130 125 127 135 138 130 134 146 164 166 120 96 104 102 91 95 125 124 103 106 77 47 58 76 83 83 86 93 89 79 86 101 119 119 115 97 96 93 90 82 79 79 81 91 123 140 153 133 110 114 121 124 121 122 120 116 115 113
160 158 154 148 139 147 158 147 102 59 37 93 127 124 129 128 133 139 138 145 147 147 140 133 130 141 146 132 125 129 125 125 136 154 155 151 130 112 121 117 110 106 118 125 103 105 120 110 89 96 94 85 81 93 104 103 97 92 105 117 121 112 112 113 109 99 94 84 69 65 79 99 108 87 108 119 107 117 133 128 135 128 121 124 123
164 165 159 125 134 137 123 96 95 119 140 320 154 131 133 130 132 136 145 146 149 152 149 148 155 160 150 136 129 133 129 139 148 158 151 137 143 148 156 116 133 132 133 115 100 94 107 101 84 85 88 88 87 78 83 105 99 97 101 105 107 98 104 99 84 73 69 66 72 67 69 63 67 67 74 107 110 76 93 120 141 134 135 135 126
209 120 72 111 130 116 117 130 155 158 158 162 174 134 124 131 139 146 151 153 151 150 160 165 164 168 153 144 138 137 142 150 162 159 143 146 154 149 134 143 145 135 127 114 107 99 74 81 80 84 84 83 82 76 77 81 106 98 92 90 88 106 85 69 75 75 67 70 67 73 68 74 70 61 69 73 68 105 117 105 91 119 140 146 128
20 20 96 141 150 129 140 159 156 145 148 155 161 141 144 141 142 146 151 151 156 161 170 160 160 160 150 152 151 144 147 152 150 135 133 143 142 145 150 131 132 131 124 112 92 113 87 94 98 89 84 88 88 91 102 95 71 69 80 86 94 84 77 77 69 69 77 64 62 62 61 61 70 81 63 64 63 61 63 51 109 122 135 125 134
109 26 299 191 165 164 169 167 144 156 167 160 167 161 152 147 154 156 155 156 157 168 164 145 155 158 146 158 157 148 152 155 142 133 136 140 138 154 155 138 121 124 129 114 106 76 95 100 110 98 89 82 85 81 92 94 98 91 77 83 94 94 76 83 79 66 58 50 62 58 52 44 34 52 57 55 49 49 61 64 59 54 45 56 34
162 167 178 204 189 181 174 160 164 171 164 163 169 163 157 155 162 166 150 153 158 168 163 159 158 147 148 157 155 149 147 155 142 135 142 153 147 166 204 114 130 124 125 107 102 102 94 88 79 123 108 90 94 77 82 101 90 87 84 96 90 75 97 73 62 56 45 55 56 57 49 47 58 61 65 48 49 55 54 50 62 59 57 53 44
177 164 164 174 178 186 183 173 172 168 165 168 164 159 150 157 166 161 160 152 161 168 149 134 150 160 157 163 151 150 152 150 139 147 150 155 151 168 197 142 139 130 124 105 93 104 113 105 81 83 116 122 110 108 80 90 102 90 74 69 56 70 63 62 61 78 72 67 44 37 33 27 54 63 64 65 47 48 67 63 65 65 77 64 51
310 165 162 163 171 182 183 171 165 166 166 170 166 159 156 153 160 154 154 150 156 149 143 152 170 165 155 163 163 150 155 153 159 160 145 156 160 162 178 140 126 119 117 97 94 89 92 115 100 64 88 114 123 120 106 98 98 96 79 78 77 66 60 60 56 83 76 85 50 45 329 45 68 53 52 66 53 51 52 57 61 65 63 61 60
183 190 173 160 163 169 167 164 162 164 154 151 150 144 142 135 129 134 123 124 127 140 158 171 170 156 161 150 145 141 141 152 137 127 129 148 148 147 153 138 133 130 115 103 94 95 93 79 115 93 73 79 115 107 108 103 89 77 72 60 67 75 71 68 53 56 52 75 102 93 312 44 53 41 59 53 69 68 68 63 63 59 50 57 64
184 182 184 158 152 154 152 155 163 157 146 137 144 145 147 155 150 122 119 136 147 161 180 171 141 155 154 152 152 144 139 139 132 142 144 155 140 151 150 136 135 126 122 120 113 127 131 118 119 118 106 83 58 89 105 104 81 75 70 65 73 85 85 86 69 55 59 51 57 73 15 44 78 76 50 17 79 69 64 67 64 58 54 47 55
166 172 171 164 154 155 156 161 164 161 160 160 159 159 161 155 152 160 159 165 172 177 182 169 149 159 162 156 153 149 143 134 143 137 139 139 142 149 143 123 131 133 133 144 140 129 129 124 121 110 124 115 78 97 117 106 105 67 43 52 44 30 67 71 57 40 39 52 65 64 39 56 53 99 136 130 74 76 76 71 69 64 54 48 34
171 162 166 175 162 156 161 158 160 168 171 169 160 165 173 175 163 167 154 160 160 178 194 185 172 162 166 163 152 153 148 147 149 149 144 146 149 154 155 147 131 129 121 121 122 123 124 122 129 76 16 118 135 166 170 107 40 129 119 53 26 20 76 79 81 38 38 65 76 71 45 72 71 61 67 75 89 85 76 66 61 63 56 45 37
167 171 163 166 165 161 161 158 165 169 165 161 156 168 167 150 151 153 151 133 168 196 181 169 162 161 168 159 148 151 156 156 154 155 150 161 156 152 159 145 128 130 115 126 128 130 143 148 153 135 110 28 85 158 134 74 142 118 97 87 42 63 9 22 13 54 14 65 64 66 58 61 69 69 71 77 82 75 63 52 43 50 51 46 39
174 174 170 166 165 165 162 163 167 164 153 158 164 169 157 145 129 142 135 135 162 134 89 99 128 118 138 147 152 159 159 154 153 150 146 155 159 157 151 143 136 137 139 137 143 141 139 136 121 137 132 119 103 193 16 39 136 140 94 106 186 117 89 42 36 5 40 89 74 71 66 62 65 78 74 82 85 87 71 66 65 59 56 53 49
186 183 175 171 167 167 166 167 167 163 161 164 162 153 139 115 104 96 105 86 74 89 103 65 100 141 137 152 164 157 154 149 149 149 145 155 160 153 152 147 140 140 140 141 150 157 154 152 151 146 172 146 155 110 316 14 117 56 141 106 54 36 203 198 107 11 8 31 39 81 83 66 61 66 79 93 95 85 85 73 65 64 61 62 57
191 188 183 170 157 160 164 167 165 165 161 158 157 155 157 147 141 144 149 143 137 138 160 173 168 165 189 166 133 147 147 143 146 149 146 148 158 160 147 143 149 145 142 143 137 134 145 151 171 162 150 91 142 128 133 6 59 48 94 163 171 170 163 187 89 141 11 54 51 62 70 62 66 76 71 101 98 86 80 83 70 71 68 64 59
189 170 176 171 162 160 166 168 164 157 153 157 162 154 153 155 158 156 153 154 152 186 171 166 167 174 143 160 156 140 142 139 144 149 148 150 152 158 156 150 148 142 139 134 146 161 165 164 152 150 165 131 125 141 165 189 59 50 47 36 78 116 136 134 158 137 79 4 35 44 44 48 56 74 97 96 89 79 56 67 71 70 64 57 58
168 162 173 171 169 167 164 160 154 154 159 156 167 166 162 162 151 149 145 144 164 171 165 167 143 141 139 139 120 118 116 129 144 154 154 152 152 152 150 144 140 145 145 155 153 146 141 143 158 156 145 159 162 160 173 178 170 192 27 59 67 96 99 97 104 148 138 122 69 47 59 37 54 43 53 81 73 73 74 51 65 61 60 52 59
164 172 175 175 169 161 153 144 149 153 154 158 163 167 165 165 154 143 142 159 159 159 146 132 133 132 124 92 95 86 85 87 138 149 152 151 151 152 145 137 139 146 147 146 142 146 156 155 154 156 166 169 178 170 155 184 162 168 112 50 69 82 71 75 108 88 132 124 116 110 85 35 60 37 35 39 36 43 54 68 70 64 63 58 54
163 166 162 161 162 156 154 150 152 154 154 153 160 158 165 155 145 150 152 154 146 138 139 136 137 141 130 118 109 102 99 89 81 110 122 138 137 142 144 147 147 150 146 153 145 142 151 164 177 175 160 163 179 168 182 176 165 153 147 157 122 101 83 70 52 100 60 61 141 145 147 132 115 22 29 24 15 12 26 34 54 48 50 53 48
153 160 159 163 160 156 147 142 147 144 143 147 148 151 157 150 146 155 156 154 158 146 136 133 130 121 129 126 123 123 103 108 103 81 117 137 128 137 141 147 147 156 149 156 166 165 164 168 172 159 157 157 168 172 155 147 149 151 146 158 159 163 168 163 170 159 133 122 103 109 108 87 130 123 13 37 28 5 12 7 36 57 82 68 35